Regional Weather Roundup
Issued by NWS Green Bay, WI

Home | Current Version | Previous Version | Graphics & Text | Print | Product List | Glossary Off
Versions: 1 2 3 4 5 6 7 8 9 10 11 12 13 14 15 16 17 18 19 20 21 22 23 24 25 26 27 28 29 30 31 32 33 34 35 36 37 38 39 40 41 42 43 44 45 46 47 48 49 50

000
ASUS43 KGRB 201800
RWRGRB

NORTH-CENTRAL AND NORTHEAST WISCONSIN REGIONAL WEATHER ROUNDUP
NATIONAL WEATHER SERVICE GREEN BAY WI
1200 PM CST MON FEB 20 2017

WIZ005-009-010>012-018-019-201900-
NORTH CENTRAL WISCONSIN

CITY           SKY/WX    TMP DP  RH WIND       PRES   REMARKS
IRONWOOD       CLOUDY    51  38  60 S15G26    29.88F
MANITOWISH WTR NOT AVBL
ARBOR VITAE    NOT AVBL
EAGLE RIVER    NOT AVBL
LAND O LAKES   CLOUDY    48  35  61 SE9G17    30.00F
RHINELANDER    CLOUDY    49  40  71 SE13G22   29.98F
PHILLIPS       CLOUDY    47  39  75 SE10G18   29.90F
ANTIGO         NOT AVBL
TOMAHAWK       NOT AVBL
MERRILL        NOT AVBL
$$

WIZ013-073-201900-
NORTHEAST WISCONSIN

CITY           SKY/WX    TMP DP  RH WIND       PRES   REMARKS
IRON MOUNTAIN  CLOUDY    43  30  60 SE9       30.07F
MARINETTE      MOSUNNY   41  33  73 E7        30.12F
OCONTO         CLOUDY    45  33  63 E6        30.11S
$$

WIZ017-030-035>037-045-201900-
CENTRAL WISCONSIN

CITY           SKY/WX    TMP DP  RH WIND       PRES   REMARKS
MEDFORD        NOT AVBL
WAUSAU         CLOUDY    44  36  73 E12       29.96F
MOSINEE        CLOUDY    46  37  71 MISG      29.98
MARSHFIELD     CLOUDY    45  37  73 E13       29.91F
WISC RAPIDS    CLOUDY    53  43  68 SE14G20   29.94F
STEVENS POINT  NOT AVBL
WAUPACA        CLOUDY    54  44  69 E12       30.02F
SHAWANO        PTSUNNY   47  37  67 NE6       30.06F
CLINTONVILLE   CLOUDY    48  37  66 E8        30.03F
WAUTOMA        CLOUDY    56  48  74 SE13      30.00F
$$

WIZ038-039-048-051-201900-
FOX VALLEY

CITY           SKY/WX    TMP DP  RH WIND       PRES   REMARKS
NWS GREEN BAY  CLOUDY    50  40  68 SE10      30.07F
APPLETON       PTSUNNY   48  37  66 SE13      30.03F
OSHKOSH        CLOUDY    53  44  71 SE13      30.03F
FOND DU LAC    CLOUDY    55  43  63 SE14      30.03F
$$

WIZ022-050-052-201900-
EAST CENTRAL WISCONSIN

CITY           SKY/WX    TMP DP  RH WIND       PRES   REMARKS
EPHRAIM        NOT AVBL
WASHINGTON ISL FAIR      43  32  66 SE8       30.14F
STURGEON BAY   MOSUNNY   45  33  63 SE13      30.11F
MANITOWOC      NOT AVBL
SHEBOYGAN      CLOUDY    45  36  70 SE12      30.10F
$$

LMZ563-521-522-541>543-201900-
LAKESHORE

STATION/POSITION TIME  TEMP    WIND        PRES    VSBY  WAVE
                       AIR SEA DIR/SP/G                  HT/PER
                 (UTC) (F)     (DEG/KT/KT) (MB)    (MI)  (FT/S)
SHEBOYGAN LKSHOR 1700   39     170/  6/  7 1020.3F
KEWAUNEE LKSHORE 1730   39     180/  5/  6 1019.6F
NORTHPORT PIER   1740   38      CALM  /  1 1021.0F
SISTER BAY LKSHO 1650   49     140/ 10/ 15   N/A
CHAMBERS ISLAND  1730   47     120/  7/ 12 1020.0F
MENOMINEE LKSHOR 1730   36      70/  5/  6 1019.4F
$$




USA.gov is the U.S. government's official web portal to all federal, state and local government web resources and services.